Regional Weather Roundup
Issued by NWS

Home | Current Version | Previous Version | Graphics & Text | Print | Product List | Glossary On
Versions: 1 2 3 4 5 6 7 8 9 10 11 12 13 14 15 16 17 18 19 20 21 22 23 24 25 26 27 28 29 30 31 32 33 34 35 36 37 38 39 40 41 42 43 44 45 46 47 48 49 50
000
ASUS43 KOAX 052002
RWRNE

WEATHER ROUNDUP FOR NEBRASKA
NATIONAL WEATHER SERVICE OMAHA NE
300 PM CDT TUE MAY 05 2015

NOTES: SATELLITE DATA IS BEING USED TO AUGMENT CLOUD COVER ABOVE
       12000 FEET.
       "FAIR" INDICATES FEW OR NO CLOUDS BELOW 12,000 FEET WITH NO
       SIGNIFICANT WEATHER AND/OR OBSTRUCTIONS TO VISIBILITY.

  * THESE STATIONS DO NOT REPORT WEATHER SUCH AS RAIN...SNOW OR FOG.

NEZ001>004-019>022-054>056-052100-
NEBRASKA PANHANDLE

CITY           SKY/WX    TMP DP  RH WIND       PRES   REMARKS
SCOTTSBLUFF    CLOUDY    60  49  66 SE20      29.92F
ALLIANCE       CLOUDY    57  50  77 SE15      29.94F
CHADRON        CLOUDY    64  50  60 SE18      29.91F
SIDNEY         LGT RAIN  52  50  93 SE12      29.96F
$$

NEZ057>060-069>072-079>082-052100-
SOUTHWEST NEBRASKA

CITY           SKY/WX    TMP DP  RH WIND       PRES   REMARKS
NORTH PLATTE   CLOUDY    60  58  92 SE12      29.96F
IMPERIAL       LGT RAIN  58  56  93 E7        29.93F
MCCOOK         LGT RAIN  63  59  87 S14       29.93F
$$

NEZ005>010-023>029-035>040-094-052100-
NORTH CENTRAL NEBRASKA

CITY           SKY/WX    TMP DP  RH WIND       PRES   REMARKS
VALENTINE      CLOUDY    61  55  81 SE12      29.98F
BROKEN BOW     CLOUDY    66  60  81 SE14      29.97F
ORD            CLOUDY    67  59  75 SE12G22   29.97F
$$

NEZ041-046>049-061>064-073>077-083>087-052100-
SOUTH CENTRAL NEBRASKA

CITY           SKY/WX    TMP DP  RH WIND       PRES   REMARKS
GRAND ISLAND   CLOUDY    73  55  53 S20       29.99F
HASTINGS       CLOUDY    74  54  49 S18G25    29.97F
KEARNEY *      CLOUDY    75  54  46 SE24G33   29.95F
$$

NEZ011>018-030>034-042>045-052100-
NORTHEAST NEBRASKA

CITY           SKY/WX    TMP DP  RH WIND       PRES   REMARKS
NORFOLK        CLOUDY    72  61  68 SE14      30.02F
COLUMBUS *     CLOUDY    73  61  64 SE10      30.03F
TEKAMAH        PTSUNNY   76  63  64 SE15      30.03F
$$

NEZ050>053-065>068-078-088>093-052100-
SOUTHEAST NEBRASKA

CITY           SKY/WX    TMP DP  RH WIND       PRES   REMARKS
LINCOLN        CLOUDY    76  59  55 S16       30.02F
OMAHA EPPLEY   CLOUDY    76  60  57 SE13      30.04F
FALLS CITY     PTSUNNY   77  58  51 S16       30.04F
$$

NEZ044-045-051>053-067-052100-
OMAHA AREA

CITY           SKY/WX    TMP DP  RH WIND       PRES   REMARKS
OMAHA EPPLEY   CLOUDY    76  60  57 SE13      30.04F
$$


USA.gov is the U.S. government's official web portal to all federal, state and local government web resources and services.